WXM80 ListenWXM80 Stop

You find our weather info also at:

UK Metoffice

WeatherCloud

Weather Underground

Northeastern Weather Network

AWEKAS

Citizen Weather Observer Program (CWOP)

HAMweather, WeatherForYou, PWS Weather


Weather Underground History page Text

Daily Summary for February 22, 2017 Units:  Metric    English   Both
« Previous Day
Next Day »
Daily Weekly Monthly Yearly Custom
  High: Low: Average:
Temperature: 10.8 °C 5.1 °C 7.6 °C
Dew Point: 6.3 °C 2.7 °C 4.4 °C
Humidity: 91 % 70 % 80 %
Wind Speed: 10.1 km/h 0 km/h 1.9 km/h
Wind Gust: 18.5 km/h - -
Wind:- - SW
Pressure: 1018.5 hPa 1010.7 hPa -
Precipitation: 0 mm    
Historical Graphs
 
 
Tabular Data for February 22, 2017
Time Temperature Dew Point Pressure Wind Wind Speed Wind Gust Humidity Rainfall Rate (Hourly)
00:02 5.1 °C 2.7 °C 1018.5 hPa SSW 6.3 km/h 7.4 km/h 85 % 0 mm
00:07 5.1 °C 2.8 °C 1018.5 hPa SW 7.9 km/h 11.1 km/h 85 % 0 mm
00:12 5.1 °C 2.8 °C 1018.5 hPa SSW 5.5 km/h 7.4 km/h 85 % 0 mm
00:17 5.2 °C 2.8 °C 1018.5 hPa SSW 5.1 km/h 18.5 km/h 85 % 0 mm
00:22 5.2 °C 2.9 °C 1018.5 hPa SSW 7.6 km/h 14.8 km/h 85 % 0 mm
00:27 5.3 °C 2.9 °C 1018.2 hPa SSW 6.6 km/h 11.1 km/h 85 % 0 mm
00:32 5.3 °C 3 °C 1018.2 hPa SSW 5.8 km/h 9.3 km/h 85 % 0 mm
00:37 5.3 °C 3 °C 1018.2 hPa SW 3.7 km/h 12.9 km/h 85 % 0 mm
00:42 5.3 °C 3 °C 1018.2 hPa WSW 5.3 km/h 11.1 km/h 85 % 0 mm
00:47 5.3 °C 3 °C 1018.2 hPa WSW 10.1 km/h 18.5 km/h 85 % 0 mm
00:52 5.4 °C 3.1 °C 1017.8 hPa SSW 8.7 km/h 11.1 km/h 85 % 0 mm
00:57 5.4 °C 3.1 °C 1018.2 hPa South 3.4 km/h 7.4 km/h 85 % 0 mm
01:02 5.4 °C 3.1 °C 1018.2 hPa SW 9.8 km/h 13 km/h 85 % 0 mm
01:07 5.4 °C 3.1 °C 1017.8 hPa SSW 8.9 km/h 13 km/h 85 % 0 mm
01:12 5.5 °C 3.2 °C 1017.8 hPa SW 3.2 km/h 6.4 km/h 85 % 0 mm
01:18 5.5 °C 3.2 °C 1017.8 hPa WSW 2.4 km/h 7.4 km/h 85 % 0 mm
01:23 5.6 °C 3.2 °C 1017.8 hPa SW 4.3 km/h 6.4 km/h 85 % 0 mm
01:28 5.6 °C 3.2 °C 1017.5 hPa SSW 5.1 km/h 9.3 km/h 85 % 0 mm
01:33 5.6 °C 3.2 °C 1017.5 hPa SSW 6.3 km/h 9.3 km/h 85 % 0 mm
01:38 5.6 °C 3.3 °C 1017.5 hPa SSW 6 km/h 9.3 km/h 85 % 0 mm
01:43 5.6 °C 3.1 °C 1017.2 hPa SW 9.3 km/h 13 km/h 84 % 0 mm
01:48 5.7 °C 3.2 °C 1017.2 hPa SSW 4.5 km/h 11.3 km/h 84 % 0 mm
01:53 5.7 °C 3.2 °C 1017.2 hPa SSW 3.5 km/h 11.1 km/h 84 % 0 mm
01:58 5.7 °C 3.2 °C 1016.8 hPa WSW 6.3 km/h 7.4 km/h 84 % 0 mm
02:03 5.7 °C 3.2 °C 1017.2 hPa SW 3.4 km/h 5.6 km/h 84 % 0 mm
02:08 5.7 °C 3.2 °C 1017.2 hPa WSW 1.1 km/h 3.7 km/h 84 % 0 mm
02:13 5.7 °C 3.2 °C 1017.2 hPa WSW 6.3 km/h 9.7 km/h 84 % 0 mm
02:18 5.7 °C 3.2 °C 1017.2 hPa SW 3.7 km/h 9.3 km/h 84 % 0 mm
02:23 5.7 °C 3.2 °C 1017.2 hPa SW 4.8 km/h 11.3 km/h 84 % 0 mm
02:28 5.7 °C 3.2 °C 1017.2 hPa SW 1.6 km/h 6.4 km/h 84 % 0 mm
02:33 5.7 °C 3.2 °C 1017.2 hPa SW 4.8 km/h 11.3 km/h 84 % 0 mm
02:38 5.8 °C 3.3 °C 1017.2 hPa SW 5.6 km/h 7.4 km/h 84 % 0 mm
02:43 5.8 °C 3.3 °C 1017.2 hPa SW 3.2 km/h 11.3 km/h 84 % 0 mm
02:48 5.8 °C 3.3 °C 1017.5 hPa WSW 3.2 km/h 8 km/h 84 % 0 mm
02:53 5.8 °C 3.3 °C 1017.5 hPa Calm   4.8 km/h 84 % 0 mm
02:58 5.8 °C 3.3 °C 1017.8 hPa SW 1 km/h 4.8 km/h 84 % 0 mm
03:03 5.8 °C 3.3 °C 1017.5 hPa Calm   4.8 km/h 84 % 0 mm
03:08 5.8 °C 3.3 °C 1017.5 hPa Calm   3.2 km/h 84 % 0 mm
03:13 5.9 °C 3.4 °C 1017.5 hPa Calm   3.2 km/h 84 % 0 mm
03:18 5.9 °C 3.4 °C 1017.5 hPa SW 1.6 km/h 4.8 km/h 84 % 0 mm
03:23 5.9 °C 3.2 °C 1017.5 hPa Calm   3.2 km/h 83 % 0 mm
03:28 5.9 °C 3.4 °C 1017.5 hPa Calm     84 % 0 mm
03:33 5.9 °C 3.2 °C 1017.5 hPa Calm     83 % 0 mm
03:38 5.9 °C 3.2 °C 1017.2 hPa SW 0.3 km/h 3.2 km/h 83 % 0 mm
03:43 5.9 °C 3.2 °C 1017.2 hPa Calm   3.2 km/h 83 % 0 mm
03:48 5.9 °C 3.2 °C 1017.2 hPa Calm   3.2 km/h 83 % 0 mm
03:53 5.9 °C 3.2 °C 1017.2 hPa Calm   4.8 km/h 83 % 0 mm
03:58 5.8 °C 3.3 °C 1017.2 hPa SW 3.9 km/h 9.7 km/h 84 % 0 mm
04:03 5.8 °C 3.3 °C 1017.2 hPa SW 3.2 km/h 9.7 km/h 84 % 0 mm
04:08 5.8 °C 3.3 °C 1017.2 hPa SSW 3.2 km/h 8 km/h 84 % 0 mm
04:13 5.8 °C 3.3 °C 1016.8 hPa SSW 1.6 km/h 6.4 km/h 84 % 0 mm
04:18 5.8 °C 3.3 °C 1016.8 hPa Calm   6.4 km/h 84 % 0 mm
04:23 5.8 °C 3.3 °C 1016.5 hPa SSW 1.6 km/h 11.3 km/h 84 % 0 mm
04:28 5.9 °C 3.4 °C 1016.5 hPa SW 2.3 km/h 9.3 km/h 84 % 0 mm
04:33 5.9 °C 3.4 °C 1016.5 hPa SW 1.6 km/h 9.7 km/h 84 % 0 mm
04:38 5.9 °C 3.4 °C 1016.5 hPa SW 1.6 km/h 6.4 km/h 84 % 0 mm
04:43 5.9 °C 3.2 °C 1016.5 hPa SSW 4.8 km/h 8 km/h 83 % 0 mm
04:48 5.9 °C 3.4 °C 1016.5 hPa SW 1.9 km/h 5.6 km/h 84 % 0 mm
04:49 5.9 °C 3.2 °C 1016.5 hPa SW 0.6 km/h 5.6 km/h 83 % 0 mm
04:54 5.9 °C 3.2 °C 1016.5 hPa SSW 2.7 km/h 4.8 km/h 83 % 0 mm
04:59 5.9 °C 3.2 °C 1016.5 hPa SW 1.3 km/h 5.6 km/h 83 % 0 mm
05:04 5.9 °C 3.2 °C 1016.8 hPa SSW 1.1 km/h 1.9 km/h 83 % 0 mm
05:09 5.9 °C 3.2 °C 1016.5 hPa SSW 1.6 km/h 3.7 km/h 83 % 0 mm
05:14 5.9 °C 3.2 °C 1016.5 hPa WSW 1.8 km/h 5.6 km/h 83 % 0 mm
05:19 5.9 °C 3.2 °C 1016.8 hPa SSW 4.7 km/h 5.6 km/h 83 % 0 mm
05:25 5.9 °C 3.2 °C 1016.8 hPa SW 1.6 km/h 5.6 km/h 83 % 0 mm
05:30 5.9 °C 3.2 °C 1016.8 hPa SSW 4.8 km/h 7.4 km/h 83 % 0 mm
05:35 5.9 °C 3.2 °C 1016.8 hPa SSW 1.8 km/h 6.4 km/h 83 % 0 mm
05:40 5.9 °C 3.2 °C 1016.8 hPa SW 1.8 km/h 5.6 km/h 83 % 0 mm
05:45 5.9 °C 3.1 °C 1016.8 hPa SW 6 km/h 9.3 km/h 82 % 0 mm
05:50 5.9 °C 3.1 °C 1016.8 hPa SW 2.4 km/h 5.6 km/h 82 % 0 mm
05:55 5.9 °C 3.1 °C 1016.8 hPa WSW 4.8 km/h 5.6 km/h 82 % 0 mm
06:00 5.9 °C 3.1 °C 1016.5 hPa SSW 2.3 km/h 5.6 km/h 82 % 0 mm
06:05 5.9 °C 3.1 °C 1016.5 hPa SSW 8 km/h 9.3 km/h 82 % 0 mm
06:10 5.9 °C 3.1 °C 1016.5 hPa WSW 6.8 km/h 11.1 km/h 82 % 0 mm
06:15 5.9 °C 3.1 °C 1016.5 hPa SW 1.3 km/h 5.6 km/h 82 % 0 mm
06:20 6 °C 3.2 °C 1016.5 hPa WSW 1.8 km/h 11.1 km/h 82 % 0 mm
06:25 6 °C 3.2 °C 1016.5 hPa WSW 6 km/h 11.1 km/h 82 % 0 mm
06:30 6 °C 3.2 °C 1016.5 hPa SSW 5.3 km/h 7.4 km/h 82 % 0 mm
06:35 6 °C 3.2 °C 1016.5 hPa SSW 3.9 km/h 11.1 km/h 82 % 0 mm
06:40 6.1 °C 3.2 °C 1016.1 hPa SSW 1.1 km/h 5.6 km/h 82 % 0 mm
06:45 6.1 °C 3.2 °C 1016.5 hPa WSW 3.1 km/h 5.6 km/h 82 % 0 mm
06:50 6.1 °C 3.2 °C 1016.5 hPa SW 1.9 km/h 5.6 km/h 82 % 0 mm
06:55 6.1 °C 3.3 °C 1016.5 hPa WSW 1.1 km/h 3.2 km/h 82 % 0 mm
07:00 6.1 °C 3.3 °C 1016.5 hPa WSW 0.2 km/h 1.6 km/h 82 % 0 mm
07:05 6.1 °C 3.3 °C 1016.5 hPa SW 1.6 km/h 5.6 km/h 82 % 0 mm
07:10 6.1 °C 3.3 °C 1016.5 hPa SW 3.7 km/h 5.6 km/h 82 % 0 mm
07:15 6.2 °C 3.3 °C 1016.5 hPa SW 0.2 km/h 1.6 km/h 82 % 0 mm
07:21 6.2 °C 3.3 °C 1016.5 hPa SW 3.5 km/h 6.4 km/h 82 % 0 mm
07:26 6.2 °C 3.3 °C 1016.5 hPa SW 0.8 km/h 3.7 km/h 82 % 0 mm
07:31 6.2 °C 3.4 °C 1016.5 hPa Calm   1.9 km/h 82 % 0 mm
07:32 6.2 °C 3.4 °C 1016.5 hPa SW 0.5 km/h   82 % 0 mm
07:37 6.2 °C 3.4 °C 1016.5 hPa SW 5 km/h 7.4 km/h 82 % 0 mm
07:42 6.2 °C 3.4 °C 1016.5 hPa SW 0.3 km/h 5.6 km/h 82 % 0 mm
07:47 6.3 °C 3.4 °C 1016.5 hPa SW 3.1 km/h 5.6 km/h 82 % 0 mm
07:52 6.3 °C 3.4 °C 1016.5 hPa SW 0.6 km/h 3.7 km/h 82 % 0 mm
07:57 6.3 °C 3.5 °C 1016.5 hPa SW 3.2 km/h 5.6 km/h 82 % 0 mm
08:02 6.4 °C 3.6 °C 1016.5 hPa SSW 0.2 km/h 1.9 km/h 82 % 0 mm
08:07 6.4 °C 3.6 °C 1016.5 hPa SW 1 km/h 1.9 km/h 82 % 0 mm
08:12 6.4 °C 3.6 °C 1016.5 hPa SW 3.2 km/h 5.6 km/h 82 % 0 mm
08:17 6.5 °C 3.7 °C 1016.5 hPa Calm   5.6 km/h 82 % 0 mm
08:22 6.6 °C 3.7 °C 1016.5 hPa WSW 0.6 km/h 3.7 km/h 82 % 0 mm
08:27 6.6 °C 3.8 °C 1016.5 hPa SSW 3.2 km/h 7.4 km/h 82 % 0 mm
08:32 6.7 °C 3.8 °C 1016.5 hPa WNW 2.4 km/h 5.6 km/h 82 % 0 mm
08:37 6.7 °C 3.9 °C 1016.1 hPa SW 1.9 km/h 5.6 km/h 82 % 0 mm
08:42 6.8 °C 4.1 °C 1016.1 hPa SW 4.5 km/h 7.4 km/h 83 % 0 mm
08:48 6.9 °C 4.2 °C 1016.1 hPa SW 6 km/h 9.7 km/h 83 % 0 mm
08:53 6.9 °C 4.3 °C 1016.1 hPa SW 2.1 km/h 4.8 km/h 83 % 0 mm
08:58 7.1 °C 4.6 °C 1016.1 hPa WSW 4.2 km/h 9.3 km/h 84 % 0 mm
09:03 7.2 °C 4.4 °C 1016.1 hPa SW 6.9 km/h 11.1 km/h 83 % 0 mm
09:08 7.3 °C 4.6 °C 1016.1 hPa SW 5.3 km/h 9.3 km/h 83 % 0 mm
09:13 7.4 °C 4.7 °C 1016.1 hPa SSW 5 km/h 7.4 km/h 83 % 0 mm
09:18 7.6 °C 4.7 °C 1016.1 hPa SSW 6.6 km/h 9.3 km/h 82 % 0 mm
09:23 7.6 °C 4.7 °C 1016.1 hPa WSW 3.7 km/h 7.4 km/h 82 % 0 mm
09:28 7.8 °C 4.9 °C 1016.1 hPa South 1.8 km/h 3.2 km/h 82 % 0 mm
09:33 7.9 °C 5 °C 1015.8 hPa SW 3.5 km/h 5.6 km/h 82 % 0 mm
09:38 8.1 °C 5.2 °C 1015.8 hPa WNW 1.8 km/h 6.4 km/h 82 % 0 mm
09:43 8.2 °C 5.2 °C 1015.8 hPa West 5.6 km/h 9.7 km/h 81 % 0 mm
09:48 8.3 °C 5.1 °C 1015.8 hPa WSW 4.8 km/h 9.7 km/h 80 % 0 mm
09:53 8.4 °C 5 °C 1015.8 hPa WSW 4.8 km/h 8 km/h 79 % 0 mm
09:58 8.6 °C 4.9 °C 1015.8 hPa West 2.6 km/h 7.4 km/h 78 % 0 mm
10:03 8.7 °C 5.1 °C 1015.8 hPa NW 2.6 km/h 5.6 km/h 78 % 0 mm
10:08 8.7 °C 4.9 °C 1015.8 hPa West 3.5 km/h 7.4 km/h 77 % 0 mm
10:13 8.7 °C 4.9 °C 1015.8 hPa WNW 1.1 km/h 4.8 km/h 77 % 0 mm
10:18 8.8 °C 4.9 °C 1015.5 hPa WNW 0.8 km/h 3.2 km/h 77 % 0 mm
10:23 8.8 °C 4.9 °C 1015.5 hPa WNW 0.6 km/h 5.6 km/h 77 % 0 mm
10:28 8.8 °C 5 °C 1015.5 hPa WNW 0.5 km/h 1.9 km/h 77 % 0 mm
10:33 8.8 °C 4.8 °C 1015.5 hPa WNW 1.1 km/h 3.7 km/h 76 % 0 mm
10:38 8.9 °C 5.1 °C 1015.5 hPa West 4.8 km/h 8 km/h 77 % 0 mm
10:43 8.9 °C 5.1 °C 1015.5 hPa West 0.5 km/h 3.7 km/h 77 % 0 mm
10:49 8.9 °C 4.9 °C 1015.1 hPa WSW 2.6 km/h 6.4 km/h 76 % 0 mm
10:54 8.9 °C 4.7 °C 1015.1 hPa WSW 1.8 km/h 6.4 km/h 75 % 0 mm
10:59 8.9 °C 4.7 °C 1015.1 hPa Calm   3.7 km/h 75 % 0 mm
11:04 8.9 °C 4.9 °C 1015.1 hPa West 3.5 km/h 5.6 km/h 76 % 0 mm
11:09 9 °C 5 °C 1015.1 hPa WSW 5 km/h 11.1 km/h 76 % 0 mm
11:14 8.9 °C 4.9 °C 1015.1 hPa SW 5.8 km/h 13 km/h 76 % 0 mm
11:19 9 °C 5.2 °C 1015.1 hPa West 1.6 km/h 5.6 km/h 77 % 0 mm
11:24 9 °C 5.2 °C 1014.8 hPa West 3.2 km/h 5.6 km/h 77 % 0 mm
11:29 9 °C 5.6 °C 1014.8 hPa WSW 3.1 km/h 3.7 km/h 79 % 0 mm
11:34 9 °C 5.7 °C 1014.8 hPa West 0.3 km/h 1.9 km/h 80 % 0 mm
11:39 9 °C 5.7 °C 1014.8 hPa NW 1.9 km/h 1.9 km/h 80 % 0 mm
11:44 8.9 °C 5.7 °C 1014.8 hPa WNW 4.8 km/h 5.6 km/h 80 % 0 mm
11:49 8.8 °C 5.7 °C 1014.8 hPa WNW 1.4 km/h 5.6 km/h 81 % 0 mm
11:54 8.8 °C 5.7 °C 1014.4 hPa WNW 1.3 km/h 3.7 km/h 81 % 0 mm
11:59 8.8 °C 5.9 °C 1014.4 hPa WNW 2.9 km/h 5.6 km/h 82 % 0 mm
12:04 8.8 °C 5.9 °C 1014.1 hPa WNW 4.7 km/h 5.6 km/h 82 % 0 mm
12:09 8.8 °C 5.9 °C 1014.1 hPa WNW 1.8 km/h 5.6 km/h 82 % 0 mm
12:14 8.9 °C 5.8 °C 1014.1 hPa WNW 4 km/h 5.6 km/h 81 % 0 mm
12:19 8.9 °C 5.6 °C 1013.8 hPa WNW 3.9 km/h 5.6 km/h 80 % 0 mm
12:24 8.9 °C 5.5 °C 1013.8 hPa WNW 2.9 km/h 6.4 km/h 79 % 0 mm
12:25 8.9 °C 5.5 °C 1013.8 hPa WNW 3.1 km/h 3.7 km/h 79 % 0 mm
12:30 8.9 °C 5.5 °C 1013.8 hPa NW 1 km/h 5.6 km/h 79 % 0 mm
12:35 8.9 °C 5.5 °C 1013.8 hPa NW 3.1 km/h 3.7 km/h 79 % 0 mm
12:40 8.9 °C 5.4 °C 1013.8 hPa NW 1.3 km/h 5.6 km/h 79 % 0 mm
12:45 8.9 °C 5.5 °C 1013.8 hPa NW 1 km/h 3.2 km/h 79 % 0 mm
12:50 9 °C 5.6 °C 1013.4 hPa WNW 0.2 km/h 1.9 km/h 79 % 0 mm
12:55 9.1 °C 5.4 °C 1013.4 hPa WNW 1.9 km/h 5.6 km/h 78 % 0 mm
13:00 9.2 °C 5.6 °C 1013.4 hPa NW 1 km/h 5.6 km/h 78 % 0 mm
13:05 9.3 °C 5.4 °C 1013.4 hPa Calm   1.9 km/h 77 % 0 mm
13:10 9.3 °C 5.4 °C 1013.1 hPa Calm     77 % 0 mm
13:15 9.4 °C 5.8 °C 1013.1 hPa Calm     78 % 0 mm
13:20 9.5 °C 5.5 °C 1012.8 hPa Calm     76 % 0 mm
13:25 9.6 °C 5.8 °C 1012.8 hPa Calm     77 % 0 mm
13:30 9.7 °C 5.7 °C 1012.8 hPa NW 1.1 km/h 3.7 km/h 76 % 0 mm
13:35 9.9 °C 5.7 °C 1012.4 hPa NW 0.6 km/h 1.9 km/h 75 % 0 mm
13:40 9.9 °C 5.7 °C 1012.4 hPa NNW 1.8 km/h 3.7 km/h 75 % 0 mm
13:46 9.9 °C 5.7 °C 1012.4 hPa NNW 2.1 km/h 3.7 km/h 75 % 0 mm
13:51 10.1 °C 6.1 °C 1012.1 hPa NE 3.1 km/h 3.7 km/h 76 % 0 mm
13:56 10.3 °C 6.1 °C 1012.1 hPa NE 1.4 km/h 5.6 km/h 75 % 0 mm
14:01 10.6 °C 6.1 °C 1012.1 hPa NNE 2.7 km/h 5.6 km/h 74 % 0 mm
14:06 10.7 °C 6.3 °C 1011.7 hPa ENE 4.2 km/h 5.6 km/h 74 % 0 mm
14:11 10.8 °C 6.1 °C 1011.7 hPa NE 2.7 km/h 5.6 km/h 73 % 0 mm
14:16 10.8 °C 6 °C 1011.7 hPa NE 2.3 km/h 5.6 km/h 72 % 0 mm
14:21 10.8 °C 6 °C 1011.7 hPa NNE 5.6 km/h 6.4 km/h 72 % 0 mm
14:26 10.7 °C 5.4 °C 1011.7 hPa NNE 4.7 km/h 7.4 km/h 70 % 0 mm
14:31 10.6 °C 5.6 °C 1011.7 hPa NNE 3.1 km/h 5.6 km/h 71 % 0 mm
14:36 10.5 °C 5.7 °C 1011.7 hPa North 2.1 km/h 5.6 km/h 72 % 0 mm
14:41 10.3 °C 5.3 °C 1011.7 hPa NNE 4.7 km/h 7.4 km/h 71 % 0 mm
14:46 10.2 °C 5.2 °C 1011.7 hPa North 3.4 km/h 5.6 km/h 71 % 0 mm
14:51 10 °C 5 °C 1011.7 hPa North 1.6 km/h 5.6 km/h 71 % 0 mm
14:56 9.9 °C 4.9 °C 1012.1 hPa North 3.7 km/h 5.6 km/h 71 % 0 mm
15:01 9.8 °C 4.8 °C 1012.1 hPa NNE 2.6 km/h 5.6 km/h 71 % 0 mm
15:06 9.8 °C 4.8 °C 1012.1 hPa North 3.5 km/h 8 km/h 71 % 0 mm
15:11 9.7 °C 4.7 °C 1012.1 hPa NNW 2.6 km/h 5.6 km/h 71 % 0 mm
15:16 9.6 °C 4.8 °C 1012.1 hPa North 4.5 km/h 5.6 km/h 72 % 0 mm
15:21 9.5 °C 4.7 °C 1012.1 hPa North 3.7 km/h 5.6 km/h 72 % 0 mm
15:26 9.4 °C 4.7 °C 1012.1 hPa North 3.1 km/h 5.6 km/h 72 % 0 mm
15:31 9.5 °C 4.7 °C 1012.1 hPa NNW 2.7 km/h 5.6 km/h 72 % 0 mm
15:37 9.5 °C 4.5 °C 1011.7 hPa NNW 2.1 km/h 5.6 km/h 71 % 0 mm
15:42 9.6 °C 4.8 °C 1012.1 hPa NNW 0.8 km/h 1.9 km/h 72 % 0 mm
15:47 9.7 °C 4.8 °C 1012.1 hPa NNW 0.8 km/h 3.7 km/h 72 % 0 mm
15:52 9.7 °C 4.9 °C 1012.1 hPa NNW 0.6 km/h 1.9 km/h 72 % 0 mm
15:57 9.8 °C 5 °C 1011.7 hPa NNW 1.9 km/h 3.7 km/h 72 % 0 mm
16:02 9.9 °C 5.1 °C 1011.7 hPa Calm     72 % 0 mm
16:07 10 °C 5 °C 1011.7 hPa Calm   1.9 km/h 71 % 0 mm
16:12 10 °C 5 °C 1011.7 hPa Calm     71 % 0 mm
16:17 10.1 °C 5.1 °C 1011.7 hPa Calm     71 % 0 mm
16:22 10.1 °C 5.3 °C 1012.1 hPa Calm     72 % 0 mm
16:27 10.1 °C 5.3 °C 1012.1 hPa Calm   1.9 km/h 72 % 0 mm
16:32 10.2 °C 5.2 °C 1012.1 hPa NNW 0.6 km/h 1.9 km/h 71 % 0 mm
16:37 10.1 °C 4.9 °C 1012.1 hPa Calm   1.9 km/h 70 % 0 mm
16:39 10.1 °C 5.1 °C 1012.1 hPa NNW 0.3 km/h 1.9 km/h 71 % 0 mm
16:44 10.1 °C 5.1 °C 1012.1 hPa Calm   1.9 km/h 71 % 0 mm
16:49 10.1 °C 5.1 °C 1012.1 hPa Calm     71 % 0 mm
16:54 10.1 °C 5.2 °C 1012.1 hPa Calm   1.9 km/h 72 % 0 mm
16:59 10.1 °C 5.4 °C 1012.1 hPa Calm     73 % 0 mm
17:04 10.1 °C 5.2 °C 1012.1 hPa Calm     72 % 0 mm
17:09 10 °C 5.4 °C 1012.1 hPa Calm     73 % 0 mm
17:14 9.9 °C 5.3 °C 1012.1 hPa Calm     73 % 0 mm
17:19 9.9 °C 5.3 °C 1012.1 hPa Calm     73 % 0 mm
17:24 9.9 °C 5.3 °C 1012.1 hPa Calm     73 % 0 mm
17:29 9.8 °C 5.2 °C 1012.1 hPa Calm     73 % 0 mm
17:34 9.8 °C 5.2 °C 1012.1 hPa Calm     73 % 0 mm
17:39 9.8 °C 5.2 °C 1012.1 hPa Calm     73 % 0 mm
17:44 9.7 °C 5.3 °C 1012.1 hPa Calm     74 % 0 mm
17:49 9.7 °C 5.3 °C 1012.1 hPa Calm     74 % 0 mm
17:54 9.6 °C 5.2 °C 1011.7 hPa Calm     74 % 0 mm
17:59 9.6 °C 5.2 °C 1012.1 hPa Calm     74 % 0 mm
18:04 9.6 °C 5.3 °C 1012.1 hPa Calm     75 % 0 mm
18:09 9.6 °C 5.3 °C 1011.7 hPa Calm     75 % 0 mm
18:15 9.5 °C 5.3 °C 1011.7 hPa Calm     75 % 0 mm
18:20 9.4 °C 5.4 °C 1011.7 hPa Calm     76 % 0 mm
18:25 9.4 °C 5.4 °C 1011.7 hPa Calm     76 % 0 mm
18:30 9.4 °C 5.4 °C 1011.7 hPa Calm     76 % 0 mm
18:35 9.3 °C 5.5 °C 1011.7 hPa Calm     77 % 0 mm
18:40 9.3 °C 5.3 °C 1011.7 hPa Calm     76 % 0 mm
18:45 9.3 °C 5.3 °C 1011.7 hPa Calm     76 % 0 mm
18:50 9.3 °C 5.3 °C 1011.7 hPa Calm     76 % 0 mm
18:55 9.2 °C 5.4 °C 1011.7 hPa Calm     77 % 0 mm
19:00 9.2 °C 5.3 °C 1011.7 hPa Calm     77 % 0 mm
19:05 9.1 °C 5.2 °C 1011.7 hPa NNW 0.6 km/h 1.9 km/h 77 % 0 mm
19:10 9.1 °C 5.2 °C 1011.7 hPa Calm     77 % 0 mm
19:15 9 °C 5.4 °C 1011.7 hPa Calm     78 % 0 mm
19:21 9 °C 5.6 °C 1011.7 hPa Calm     79 % 0 mm
19:26 8.9 °C 5.5 °C 1011.7 hPa West 1.6 km/h 3.7 km/h 79 % 0 mm
19:31 8.9 °C 5.6 °C 1011.7 hPa West 0.3 km/h 1.9 km/h 80 % 0 mm
19:36 8.9 °C 5.6 °C 1011.7 hPa Calm     80 % 0 mm
19:41 8.8 °C 5.6 °C 1011.7 hPa Calm     80 % 0 mm
19:46 8.8 °C 5.5 °C 1011.7 hPa Calm     80 % 0 mm
19:51 8.7 °C 5.4 °C 1011.7 hPa Calm     80 % 0 mm
19:56 8.7 °C 5.7 °C 1011.7 hPa Calm     81 % 0 mm
20:01 8.7 °C 5.6 °C 1011.7 hPa Calm     81 % 0 mm
20:06 8.6 °C 5.7 °C 1011.7 hPa Calm     82 % 0 mm
20:11 8.6 °C 5.7 °C 1011.7 hPa Calm     82 % 0 mm
20:16 8.4 °C 5.6 °C 1011.7 hPa Calm     82 % 0 mm
20:21 8.4 °C 5.7 °C 1011.7 hPa Calm     83 % 0 mm
20:26 8.3 °C 5.6 °C 1011.7 hPa Calm     83 % 0 mm
20:31 8.2 °C 5.5 °C 1011.7 hPa Calm     83 % 0 mm
20:36 8.1 °C 5.2 °C 1011.7 hPa Calm     82 % 0 mm
20:41 8 °C 5.1 °C 1011.7 hPa Calm     82 % 0 mm
20:46 7.9 °C 5 °C 1011.7 hPa Calm     82 % 0 mm
20:51 7.8 °C 4.9 °C 1011.7 hPa Calm     82 % 0 mm
20:52 7.8 °C 4.9 °C 1011.7 hPa Calm     82 % 0 mm
20:57 7.7 °C 5 °C 1011.7 hPa Calm     83 % 0 mm
21:02 7.6 °C 5.1 °C 1011.7 hPa Calm     84 % 0 mm
21:07 7.6 °C 5 °C 1012.1 hPa Calm     84 % 0 mm
21:12 7.4 °C 5.1 °C 1011.7 hPa Calm     85 % 0 mm
21:17 7.3 °C 5 °C 1011.7 hPa Calm     85 % 0 mm
21:22 7.3 °C 4.9 °C 1011.7 hPa Calm   1.9 km/h 85 % 0 mm
21:27 7.2 °C 4.8 °C 1011.7 hPa Calm     85 % 0 mm
21:32 7.1 °C 4.7 °C 1011.7 hPa Calm     85 % 0 mm
21:37 7 °C 4.7 °C 1011.7 hPa Calm     85 % 0 mm
21:42 6.9 °C 4.6 °C 1011.7 hPa Calm     85 % 0 mm
21:47 6.8 °C 4.7 °C 1011.4 hPa Calm     86 % 0 mm
21:52 6.8 °C 4.6 °C 1011.4 hPa Calm   1.9 km/h 86 % 0 mm
21:57 6.7 °C 4.5 °C 1011.4 hPa Calm     86 % 0 mm
22:02 6.6 °C 4.6 °C 1011.4 hPa Calm     87 % 0 mm
22:08 6.6 °C 4.6 °C 1011.4 hPa West 1.1 km/h 1.9 km/h 87 % 0 mm
22:13 6.5 °C 4.5 °C 1011.4 hPa West 0.2 km/h 1.9 km/h 87 % 0 mm
22:18 6.4 °C 4.6 °C 1011.4 hPa Calm     88 % 0 mm
22:23 6.4 °C 4.6 °C 1011.4 hPa Calm     88 % 0 mm
22:28 6.3 °C 4.5 °C 1011.4 hPa Calm     88 % 0 mm
22:33 6.3 °C 4.4 °C 1011.1 hPa Calm     88 % 0 mm
22:38 6.3 °C 4.4 °C 1011.1 hPa Calm     88 % 0 mm
22:43 6.2 °C 4.4 °C 1011.1 hPa Calm     88 % 0 mm
22:48 6.2 °C 4.3 °C 1011.4 hPa Calm     88 % 0 mm
22:53 6.1 °C 4.2 °C 1011.1 hPa West 0.6 km/h 1.9 km/h 88 % 0 mm
22:58 5.9 °C 4.1 °C 1011.1 hPa Calm     88 % 0 mm
23:03 5.8 °C 4 °C 1011.1 hPa Calm     88 % 0 mm
23:08 5.7 °C 3.8 °C 1011.1 hPa Calm     87 % 0 mm
23:13 5.7 °C 3.7 °C 1011.1 hPa Calm     87 % 0 mm
23:18 5.6 °C 3.7 °C 1010.7 hPa Calm     88 % 0 mm
23:23 5.5 °C 3.8 °C 1010.7 hPa Calm     89 % 0 mm
23:28 5.4 °C 3.9 °C 1011.1 hPa Calm     90 % 0 mm
23:33 5.4 °C 4.1 °C 1011.1 hPa Calm     91 % 0 mm
23:38 5.4 °C 4.1 °C 1011.1 hPa Calm     91 % 0 mm
23:43 5.3 °C 4 °C 1011.1 hPa West 1.6 km/h 3.2 km/h 91 % 0 mm
23:48 5.3 °C 3.9 °C 1010.7 hPa Calm   1.6 km/h 91 % 0 mm
23:53 5.3 °C 3.9 °C 1010.7 hPa Calm   1.6 km/h 91 % 0 mm
23:58 5.2 °C 3.9 °C 1010.7 hPa Calm   1.9 km/h 91 % 0 mm
Crab Meadow Weather
Compliments of Weather Underground - 3 mb

Script developed by  Jim McMurry - jmcmurry@mwt.net Adapted for the template by  Wim van der Kuil - Leuven-Template.eu

Extremes: The longest period without measurable rainfall in the United States was 767 days at Bagdad, California.